{"data":{"norad_id":68251,"epoch":"2026-09-19T21:12:11.327616Z","epoch_age_seconds":105449,"freshness":"FRESH","line1":"1 68251U 26054V   26262.88346444  .00014234  00000+0  43147-3 0  9993","line2":"2 68251  53.1574 112.7746 0001320  86.3388 273.7766 15.34410043 28754","mean_motion":15.34410043,"eccentricity":0.000132,"inclination_deg":53.1574,"raan_deg":112.7746,"arg_perigee_deg":86.3388,"mean_anomaly_deg":273.7766,"bstar":0.00043147,"rev_number":2875,"period_min":93.847143830249,"perigee_km":461.77040348591,"apogee_km":463.57637742899,"semimajor_km":6840.8103904575,"source":"CELESTRAK","updated_at":"2026-09-20T09:00:43.843344Z"}}